| time (UTC) | temp C | wind direction | speed KPH | gust KPH | rain 1hr cm | rain 24hr cm | rain mn cm | humidity % | barometer mb |
| 20260504044543 | 11 | 279 | 1.6 | 3.2 | 0.00 | 0.00 | 0.00 | 33 | 1017.5 |
| 20260504043038 | 11 | 280 | 1.6 | 4.8 | 0.00 | 0.00 | 0.00 | 33 | 1017.6 |
| 20260504041536 | 11 | 284 | 0.0 | 1.6 | 0.00 | 0.00 | 0.00 | 32 | 1017.7 |
| 20260504040039 | 12 | 284 | 0.0 | 1.6 | 0.00 | 0.00 | 0.00 | 28 | 1017.7 |
| 20260504034553 | 13 | 309 | 1.6 | 9.7 | 0.00 | 0.00 | 0.00 | 28 | 1017.7 |
| 20260504033039 | 13 | 290 | 1.6 | 6.4 | 0.00 | 0.00 | 0.00 | 28 | 1017.6 |
| 20260504031535 | 13 | 315 | 1.6 | 8.0 | 0.00 | 0.00 | 0.00 | 28 | 1017.8 |
| 20260504030042 | 13 | 297 | 3.2 | 9.7 | 0.00 | 0.00 | 0.00 | 29 | 1017.6 |
| 20260504024535 | 13 | 313 | 3.2 | 11.3 | 0.00 | 0.00 | 0.00 | 29 | 1017.4 |
| 20260504023036 | 13 | 38 | 0.0 | 6.4 | 0.00 | 0.00 | 0.00 | 28 | 1017.3 |
| 20260504021534 | 14 | 288 | 1.6 | 6.4 | 0.00 | 0.00 | 0.00 | 26 | 1017.2 |
| 20260504020036 | 14 | 277 | 0.0 | 6.4 | 0.00 | 0.00 | 0.00 | 26 | 1017.2 |
| 20260504014541 | 15 | 279 | 1.6 | 12.9 | 0.00 | 0.00 | 0.00 | 26 | 1017.3 |
| 20260504013033 | 15 | 315 | 11.3 | 29.0 | 0.00 | 0.00 | 0.00 | 26 | 1017.3 |
| 20260504011532 | 15 | 294 | 4.8 | 9.7 | 0.00 | 0.00 | 0.00 | 22 | 1016.8 |
| 20260504010031 | 16 | 346 | 1.6 | 33.8 | 0.00 | 0.00 | 0.00 | 22 | 1016.8 |
| 20260504004533 | 16 | 286 | 3.2 | 16.1 | 0.00 | 0.00 | 0.00 | 21 | 1016.7 |
| 20260504003034 | 16 | 234 | 1.6 | 6.4 | 0.00 | 0.00 | 0.00 | 22 | 1016.7 |
| 20260504001530 | 17 | 309 | 1.6 | 4.8 | 0.00 | 0.00 | 0.00 | 21 | 1016.7 |
| 20260504000029 | 17 | 144 | 0.0 | 8.0 | 0.00 | 0.00 | 0.00 | 19 | 1016.7 |
| 20260503234538 | 17 | 159 | 3.2 | 12.9 | 0.00 | 0.00 | 0.00 | 18 | 1016.8 |
| 20260503233027 | 17 | 268 | 1.6 | 8.0 | 0.00 | 0.00 | 0.00 | 17 | 1016.9 |
| 20260503231530 | 18 | 249 | 4.8 | 14.5 | 0.00 | 0.00 | 0.00 | 18 | 1017.1 |
| 20260503230026 | 18 | 245 | 3.2 | 9.7 | 0.00 | 0.00 | 0.00 | 18 | 1017.0 |
| 20260503224526 | 18 | 291 | 4.8 | 11.3 | 0.00 | 0.00 | 0.00 | 17 | 1017.1 |
| 20260503223025 | 18 | 202 | 1.6 | 14.5 | 0.00 | 0.00 | 0.00 | 18 | 1017.3 |
| 20260503221524 | 17 | 304 | 0.0 | 3.2 | 0.00 | 0.00 | 0.00 | 18 | 1017.5 |
| 20260503220024 | 17 | 150 | 0.0 | 6.4 | 0.00 | 0.00 | 0.00 | 20 | 1017.7 |
| 20260503214526 | 18 | 272 | 0.0 | 6.4 | 0.00 | 0.00 | 0.00 | 18 | 1018.1 |
| 20260503213022 | 17 | 215 | 0.0 | 11.3 | 0.00 | 0.00 | 0.00 | 18 | 1018.3 |
| 20260503211523 | 18 | 226 | 1.6 | 9.7 | 0.00 | 0.00 | 0.00 | 18 | 1018.7 |
| 20260503210025 | 18 | 91 | 4.8 | 8.0 | 0.00 | 0.00 | 0.00 | 17 | 1018.9 |
| 20260503204521 | 18 | 114 | 3.2 | 14.5 | 0.00 | 0.00 | 0.00 | 17 | 1019.2 |
| 20260503203022 | 18 | 81 | 4.8 | 16.1 | 0.00 | 0.00 | 0.00 | 16 | 1019.6 |
| 20260503201518 | 20 | 107 | 6.4 | 11.3 | 0.00 | 0.00 | 0.00 | 16 | 1019.7 |
| 20260503200016 | 19 | 88 | 1.6 | 6.4 | 0.00 | 0.00 | 0.00 | 17 | 1020.1 |
| 20260503194515 | 20 | 132 | 3.2 | 14.5 | 0.00 | 0.00 | 0.00 | 17 | 1020.3 |
| 20260503193012 | 19 | 89 | 1.6 | 11.3 | 0.00 | 0.00 | 0.00 | 18 | 1020.6 |
| 20260503191511 | 18 | 125 | 3.2 | 12.9 | 0.00 | 0.00 | 0.00 | 16 | 1020.8 |
| 20260503190009 | 18 | 126 | 0.0 | 9.7 | 0.00 | 0.00 | 0.00 | 19 | 1021.1 |
| 20260503184515 | 18 | 95 | 4.8 | 17.7 | 0.00 | 0.00 | 0.00 | 18 | 1021.3 |
| 20260503183006 | 18 | 87 | 3.2 | 11.3 | 0.00 | 0.00 | 0.00 | 19 | 1021.5 |
| 20260503181506 | 17 | 265 | 6.4 | 11.3 | 0.00 | 0.00 | 0.00 | 19 | 1021.9 |
| 20260503180003 | 16 | 277 | 4.8 | 24.1 | 0.00 | 0.00 | 0.00 | 19 | 1022.1 |
| 20260503174502 | 16 | 315 | 6.4 | 17.7 | 0.00 | 0.00 | 0.00 | 20 | 1022.6 |
| 20260503173118 | 16 | 124 | 1.6 | 8.0 | 0.00 | 0.00 | 0.00 | 21 | 1022.8 |
| 20260503171558 | 15 | 286 | 4.8 | 14.5 | 0.00 | 0.00 | 0.00 | 22 | 1023.1 |
| 20260503081514 | 7 | 275 | 0.0 | 4.8 | 0.00 | 0.00 | 0.00 | 35 | 1025.6 |
| 20260503071511 | 7 | 299 | 0.0 | 3.2 | 0.00 | 0.00 | 0.00 | 37 | 1026.3 |
| 20260503054503 | 7 | 103 | 0.0 | 3.2 | 0.00 | 0.00 | 0.00 | 37 | 1027.0 |
| 20260503053003 | 7 | 105 | 0.0 | 1.6 | 0.00 | 0.00 | 0.00 | 39 | 1027.0 |